Погода в Михайловке

Россия / Республика Башкортостан     53°26′48″N   58°43′23″E
темп.,
°C
ветер,
м/с
пор.,
м/с
влажн.,
%
обл.,
%
осадки,
мм/ч
давл.,
гПа
погр.,
м
6 декабря, пн
пн623:00−4ююз1193100 0.0 101820
02:00−3юз1293100 0.1 101768
05:00−3з1195100 0.4 101744
08:00−4зсз1197100 0.5 101722
11:00−4зсз22945 0.5 101956
14:00−3зсз23816 0.0 1019184
17:00−7зсз22896 0.0 102233
20:00−9з229113 0.0 102419
7 декабря, вт
вт723:00−10зсз22905 0.0 102634
02:00−12зсз22905 0.0 102824
05:00−13зсз21905 0.0 103016
08:00−14сз11925 0.0 103211
11:00−12зсз118022 0.0 103545
14:00−10ю117599 0.0 1035134
17:00−13зюз11905 0.0 10379
20:00−15зюз11925 0.0 103812
8 декабря, ср
ср823:00−15зюз11919 0.0 104012
02:00−15з11905 0.0 10409
05:00−15з11889 0.0 10419
08:00−15юз118697 0.0 104116
11:00−13ююз228179 0.0 104264
14:00−10ю2483100 0.0 1041124
17:00−11ююз2493100 0.0 104175
20:00−10ююз2490100 0.0 104178
9 декабря, чт
чт923:00−10ююз238699 0.0 104051
02:00−10юз2386100 0.0 104049
05:00−10ююз2288100 0.0 104040
08:00−10ююз3488100 0.0 104060
11:00−9ююз3680100 0.0 1040111
14:00−7ю3775100 0.0 1039151
17:00−9ююз3483100 0.0 103959
20:00−11ююз3481100 0.0 103971
10 декабря, пт
пт1023:00−11ююз2580100 0.0 103982
02:00−11ююз357899 0.0 103878
05:00−11ююз2382100 0.0 103752
08:00−10ююз2676100 0.0 1036123
11:00−10ююз277594 0.0 1036148
14:00−7ю2873100 0.0 1034214
17:00−10ю1185100 0.0 103310
20:00−9зюз0184100 0.0 103310